ONEWEB-0326 (49195 NORAD) Tracking and Keplerian Element Data

This shows tracking and keplerian element data for the satellite.

Feedback or suggestion? Click here.




ElementValue
Catalog49195
NameONEWEB-0326
Epoch Orbit591
Epoch Day288.25002315
Epoch Year2021
RAAN317.8157
Inclination87.4936
Eccentricity0.0021973
Argument of Perigee183.6691
Mean Anonmoly50.9809
Mean Motion14.9127683
Decay Rate-0.0145249
L11 49195U 21083K 21288.25002315 -.01452490 00000-0 -15918+0 0 9991
L22 49195 87.4936 317.8157 0021973 183.6691 50.9809 14.91276830 5912

Live tracking and technical data element details for ONEWEB-0326 (NORAD 49195). ONEWEB-0326 can be tracked NOW for your location showing map with azimuth and elevation plus other details from your city location.

Track the satellite on the map from your city or location and see movement details for azimuth, elevation, latitude, longitude, range, height, and movement on the map or in text.







IsCatalogInMostPopularTable: catalog: 49195, numindb: 7
Update: records affected: 1



GetName: 49195 ONEWEB-0326

Hit Count: updated at: Tue, 19 Oct 2021 08:48:18 GMT